Location: Albany
(35.0170°S, 117.8920°E)
Time: 23:44:55
(UTC+08:00)

S-56A Canister/Altair - Pass Details

Date: 24 June 2021
Orbit: 632 x 2501 km, 38.9° (Epoch: 24 July)

Event Time Altitude Azimuth Distance (km) Brightness Sun altitude
Rises 19:12:49 0° 252° (WSW) 6,167 13.1 -25.4°
Reaches altitude 10° 19:16:51 10° 252° (WSW) 5,181 12.5 -26.2°
Maximum altitude 19:32:11 87° 338° (NNW) 2,275 9.7 -29.3°
Enters shadow 19:37:40 43° 64° (ENE) 2,690 9.8 -30.4°
